Edinburgh Airport, United Kingdom

8:08 AM BST on September 20, 2017 (GMT +0100)
Edinburgh Airport

Weather History for EGPH - September, 2013

Change the Weather History Date:

Tuesday, September 3, 2013

  Actual Average Record
Temperature  
Mean Temperature 63 °F -  
Max Temperature 73 °F 60 °F 73 °F (1999)
Min Temperature 53 °F 47 °F 33 °F (1996)
Degree Days  
Heating Degree Days 2    
Growing Degree Days 13 (Base 50)    
Moisture  
Dew Point 57 °F    
Average Humidity 80    
Maximum Humidity 94    
Minimum Humidity 53    
Precipitation  
Precipitation 0.00 in 0.09 in - ()
Sea Level Pressure  
Sea Level Pressure 30.22 in    
Wind  
Wind Speed 10 mph ()    
Max Wind Speed 15 mph    
Max Gust Speed -    
Visibility 6.2 miles    
Events Rain    
Averages and records for this station are not official NWS values.
T = Trace of Precipitation, MM = Missing Value Source: Averaged Metar Reports

Daily Weather History Graph

Daily Weather History Graph

Search for Another Location

Airport or City:

Trip Planner

Search our weather history database for the weather conditions in past years. The results will help you decide how hot, cold, wet, or windy it might be!

Date:

Astronomy

Sep. 03, 2013 Rise Set
Actual Time 6:21 AM BST 8:02 PM BST
Civil Twilight 5:42 AM BST 8:41 PM BST
Nautical Twilight 4:53 AM BST 9:29 PM BST
Astronomical Twilight 3:57 AM BST 10:24 PM BST
Moon 4:10 AM BST (9/3) 6:47 PM BST (9/3)
Length of Visible Light 14h 58m
Length of Day
13h 40m
Waning Crescent, 4% of the Moon is Illuminated
Sep 3
Waning Crescent
Sep 5
New
Sep 12
First Quarter
Sep 19
Full
Sep 27
Last Quarter

Hourly Weather History & Observations

Time (BST) Temp. Dew Point Humidity Pressure Visibility Wind Dir Wind Speed Gust Speed Precip Events Conditions
12:20 AM 60.8 °F 57.2 °F 88% 30.24 in 6.2 mi West 11.5 mph - N/A   Overcast
12:50 AM 60.8 °F 57.2 °F 88% 30.24 in 6.2 mi WSW 11.5 mph - N/A   Mostly Cloudy
1:20 AM 60.8 °F 59.0 °F 94% 30.24 in 6.2 mi WSW 8.1 mph - N/A   Overcast
1:50 AM 60.8 °F 59.0 °F 94% 30.24 in 6.2 mi West 9.2 mph - N/A   Overcast
2:20 AM 60.8 °F 57.2 °F 88% 30.24 in 6.2 mi West 11.5 mph - N/A   Overcast
2:50 AM 60.8 °F 59.0 °F 94% 30.24 in 6.2 mi SW 8.1 mph - N/A   Overcast
3:20 AM 60.8 °F 59.0 °F 94% 30.24 in 6.2 mi SW 13.8 mph - N/A   Overcast
3:50 AM 60.8 °F 59.0 °F 94% 30.24 in 6.2 mi SW 15.0 mph - N/A   Overcast
4:20 AM 60.8 °F 59.0 °F 94% 30.24 in 6.2 mi WSW 13.8 mph - N/A   Overcast
4:50 AM 60.8 °F 59.0 °F 94% 30.24 in 4.3 mi WSW 10.4 mph - N/A   Overcast
5:20 AM 60.8 °F 59.0 °F 94% 30.21 in 6.2 mi WSW 12.7 mph - N/A   Overcast
5:50 AM 60.8 °F 59.0 °F 94% 30.24 in 6.2 mi WSW 12.7 mph - N/A   Overcast
6:20 AM 60.8 °F 59.0 °F 94% 30.24 in 6.2 mi WSW 8.1 mph - N/A   Overcast
6:50 AM 60.8 °F 59.0 °F 94% 30.24 in 6.2 mi WSW 9.2 mph - N/A   Overcast
7:20 AM 62.6 °F 59.0 °F 88% 30.24 in 6.2 mi WSW 9.2 mph - N/A   Mostly Cloudy
7:50 AM 62.6 °F 59.0 °F 88% 30.24 in 6.2 mi WSW 9.2 mph - N/A   Mostly Cloudy
8:20 AM 62.6 °F 59.0 °F 88% 30.24 in 6.2 mi SW 12.7 mph - N/A   Mostly Cloudy
8:50 AM 62.6 °F 59.0 °F 88% 30.24 in 6.2 mi WSW 11.5 mph - N/A   Mostly Cloudy
9:20 AM 64.4 °F 59.0 °F 83% 30.24 in 6.2 mi WSW 12.7 mph - N/A   Mostly Cloudy
9:50 AM 64.4 °F 59.0 °F 83% 30.24 in 6.2 mi WSW 13.8 mph - N/A   Mostly Cloudy
10:20 AM 66.2 °F 59.0 °F 78% 30.24 in 6.2 mi WSW 12.7 mph - N/A   Mostly Cloudy
10:50 AM 68.0 °F 59.0 °F 73% 30.24 in 6.2 mi WSW 15.0 mph - N/A   Mostly Cloudy
11:20 AM 66.2 °F 59.0 °F 78% 30.24 in 6.2 mi WSW 12.7 mph - N/A   Mostly Cloudy
11:50 AM 64.4 °F 59.0 °F 83% 30.24 in 6.2 mi WSW 12.7 mph - N/A Rain Light Rain
12:20 PM 64.4 °F 59.0 °F 83% 30.24 in 6.2 mi WSW 11.5 mph - N/A   Overcast
12:50 PM 68.0 °F 59.0 °F 73% 30.24 in 6.2 mi WSW 12.7 mph - N/A   Mostly Cloudy
1:20 PM 68.0 °F 57.2 °F 68% 30.21 in 6.2 mi West 10.4 mph - N/A   Mostly Cloudy
1:50 PM 71.6 °F 57.2 °F 60% 30.21 in 6.2 mi WSW 10.4 mph - N/A   Mostly Cloudy
2:20 PM 73.4 °F 57.2 °F 57% 30.21 in 6.2 mi WSW 12.7 mph - N/A   Scattered Clouds
2:50 PM 73.4 °F 55.4 °F 53% 30.21 in 6.2 mi WSW 15.0 mph - N/A   Scattered Clouds
3:20 PM 73.4 °F 55.4 °F 53% 30.21 in 6.2 mi WSW 11.5 mph - N/A   Scattered Clouds
3:50 PM 71.6 °F 57.2 °F 60% 30.18 in 6.2 mi West 12.7 mph - N/A   Scattered Clouds
4:20 PM 69.8 °F 55.4 °F 60% 30.18 in 6.2 mi West 13.8 mph - N/A   Scattered Clouds
4:50 PM 69.8 °F 53.6 °F 56% 30.18 in 6.2 mi West 13.8 mph - N/A   Scattered Clouds
5:20 PM 68.0 °F 53.6 °F 60% 30.18 in 6.2 mi West 12.7 mph - N/A   Scattered Clouds
5:50 PM 68.0 °F 53.6 °F 60% 30.18 in 6.2 mi West 11.5 mph - N/A   Scattered Clouds
6:20 PM 66.2 °F 53.6 °F 64% 30.18 in 6.2 mi West 9.2 mph - N/A   Scattered Clouds
6:50 PM 64.4 °F 53.6 °F 68% 30.18 in 6.2 mi WSW 5.8 mph - N/A   Scattered Clouds
7:20 PM 64.4 °F 53.6 °F 68% 30.18 in 6.2 mi West 5.8 mph - N/A   Scattered Clouds
7:50 PM 60.8 °F 55.4 °F 82% 30.18 in 6.2 mi West 5.8 mph - N/A   Scattered Clouds
8:20 PM 60.8 °F 55.4 °F 82% 30.21 in 6.2 mi WSW 4.6 mph - N/A   Mostly Cloudy
8:50 PM 60.8 °F 55.4 °F 82% 30.21 in 6.2 mi SW 6.9 mph - N/A   Scattered Clouds
9:20 PM 59.0 °F 53.6 °F 82% 30.21 in 6.2 mi SW 6.9 mph - N/A   Scattered Clouds
9:50 PM 55.4 °F 51.8 °F 88% 30.21 in 6.2 mi SW 4.6 mph - N/A   Scattered Clouds
10:20 PM 57.2 °F 53.6 °F 88% 30.18 in 6.2 mi West 4.6 mph - N/A   Partly Cloudy
10:50 PM 53.6 °F 51.8 °F 94% 30.18 in 6.2 mi WSW 6.9 mph - N/A   Partly Cloudy
11:20 PM 53.6 °F 50.0 °F 88% 30.18 in 6.2 mi WSW 6.9 mph - N/A   Partly Cloudy
11:50 PM 53.6 °F 50.0 °F 88% 30.18 in - SW 6.9 mph - N/A   Clear